Voltar ao catálogo

STARLINK-38293

AtivoComunicaçõesSSO
NORAD 100387·PAYLOAD·🇺🇸 United States

Lançado Aug 19, 2026 de Vandenberg Space Force Base

Loading…

Próximas Passagens (próximas 24 horas)

TLE

AtualizadoSource: Space-Track

Época: Sep 14, 2026, 20:34 UTC

1 A0387U 26190S   26257.85717582 -.01013738  00000-0 -90772-2 0  9993
2 A0387  97.2830 111.8782 0001204 115.3029 244.8359 15.70766193  5482

Acompanhe STARLINK-38293 em tempo real com AllMySat

Download on the App Store